This demonstration page uses our WeatherBlox Daily Observations layout. Learn more.

Left ArrowRight Arrow

Hourly Observations for November 23, 2019

Temp ( °F °C ) Dew Point ( °F °C ) Humidity (%) Winds ( mph kmh ) Pressure ( in mb ) Visibility ( mi km ) Precip ( " mm )
12:53 am 00:53 Cloudy 28 -2 N/A N/A WSW 5 7 30.06 1018 10 16 0.00 0.00
1:53 am 01:53 Cloudy 28 -2 N/A N/A WSW 6 9 30.04 1017 10 16 0.00 0.00
2:53 am 02:53 Clear 27 -3 N/A N/A WSW 6 9 30.03 1017 10 16 0.00 0.00
3:53 am 03:53 Clear 27 -3 N/A N/A WSW 7 11 30.02 1017 10 16 0.00 0.00
4:53 am 04:53 Clear 25 -4 N/A N/A WSW 7 11 30.00 1016 10 16 0.00 0.00
5:53 am 05:53 Clear 25 -4 N/A N/A SSW 8 13 29.97 1015 10 16 0.00 0.00
6:53 am 06:53 Clear 25 -4 N/A N/A WSW 8 13 29.98 1015 10 16 0.00 0.00
7:53 am 07:53 Sunny 25 -4 N/A N/A W 10 17 29.98 1015 10 16 0.00 0.00
8:53 am 08:53 Sunny 30 -1.1 24 -4.4 79 79 WNW 10 17 29.99 1016 10 16 0.00 0.00
9:53 am 09:53 Sunny 35 1.7 27 -2.8 72 72 NW 10 17 29.99 1016 10 16 0.00 0.00
10:53 am 10:53 Sunny 42 5.6 30 -1.1 62 62 NNW 15 24 29.98 1015 10 16 0.00 0.00
11:53 am 11:53 Sunny 46 7.8 31 -0.6 56 56 NNW 16 26 29.95 1014 10 16 0.00 0.00
12:53 pm 12:53 Sunny 50 10 30 -1.1 46 46 NNW 16 26 29.93 1014 10 16 0.00 0.00
1:53 pm 13:53 Sunny 51 10.6 32 0 48 48 NW 16 26 29.92 1013 10 16 0.00 0.00
3:53 pm 15:53 Sunny 53 11.7 31 -0.6 43 43 NW 9 15 29.92 1013 10 16 0.00 0.00
4:53 pm 16:53 Sunny 46 7.8 31 -0.6 56 56 WNW 7 11 29.94 1014 10 16 0.00 0.00
5:53 pm 17:53 Clear 41 5 29 -1.7 62 62 W 5 7 29.95 1014 10 16 0.00 0.00
6:53 pm 18:53 Clear 37 2.8 27 -2.8 67 67 Calm 29.95 1014 10 16 0.00 0.00
7:53 pm 19:53 Clear 38 3.3 27 -2.8 65 65 SW 5 7 29.95 1014 10 16 0.00 0.00
8:53 pm 20:53 Clear 36 2.2 26 -3.3 67 67 SW 7 11 29.95 1014 10 16 0.00 0.00
9:53 pm 21:53 Clear 37 2.8 28 -2.2 70 70 SW 6 9 29.93 1014 10 16 0.00 0.00
10:53 pm 22:53 Clear 35 1.7 26 -3.3 70 70 WSW 7 11 29.91 1013 10 16 0.00 0.00
11:53 pm 23:53 Clear 35 1.7 26 -3.3 70 70 W 8 13 29.91 1013 10 16 0.00 0.00

Powered by AerisWeather